RH
42 21 14 33 39 40 16 27 39 88 96 96 96 85 69 65 50 51 41 43 58 73 66 60 68 79 86 97 97 98 96 99 97 95 93 97 94 92 95 88 90 95 95
24 16 9 11 28 22 15 16 33 18 38 87 97 96 96 92 84 64 57 51 63 53 48 66 57 76 99 96 74 100 88 98 98 97 88 92 84 74 70 85 77 80 97
19 14 8 8 8 12 7 9 18 22 8 22 27 44 93 97 95 87 73 79 79 62 51 55 80 91 89 82 85 82 89 94 97 96 97 97 93 88 75 66 73 65 63
19 12 9 8 9 12 11 9 9 24 18 11 30 53 53 67 95 95 88 82 92 88 80 72 80 74 69 63 64 67 76 80 80 80 82 89 76 55 52 50 54 57 48
10 10 13 14 13 13 14 11 9 10 22 22 49 37 69 78 76 91 89 97 92 91 92 96 84 78 84 70 66 66 71 65 56 55 53 62 75 74 79 57 47 43 44
14 14 13 15 16 16 15 13 11 12 13 12 17 29 60 79 96 84 78 94 68 99 95 95 100 92 81 75 43 58 72 78 70 51 42 44 44 48 47 46 46 44 41
16 17 19 15 12 10 10 10 9 12 21 21 17 27 70 90 89 81 88 89 92 98 100 95 94 96 97 78 46 46 57 71 87 84 57 41 40 42 45 46 46 47 46
11 17 16 13 10 9 8 8 9 12 12 9 8 7 9 16 18 32 62 43 84 88 95 100 97 99 95 84 57 50 52 55 81 96 89 64 47 40 39 39 41 44 44
17 16 15 12 9 8 9 11 11 10 8 5 4 4 5 5 8 10 18 22 50 52 61 96 95 100 100 78 64 58 57 57 71 84 98 96 84 73 51 41 41 43 43
21 16 12 11 8 9 11 10 8 7 5 4 4 4 4 4 4 3 4 6 24 74 74 71 73 93 100 99 99 93 82 69 68 82 91 97 100 95 87 74 81 80 75
15 13 12 10 8 9 9 8 7 5 5 5 5 4 4 4 4 4 4 5 6 11 47 38 62 82 100 100 100 98 100 100 91 92 94 99 98 100 100 97 89 89 97
15 15 14 13 12 10 8 8 6 6 6 6 6 5 5 5 5 5 4 4 5 7 17 33 70 78 71 100 100 98 100 100 100 98 98 100 98 100 100 98 100 99 96
20 19 15 15 12 9 6 5 6 7 8 8 7 6 6 6 6 8 7 7 8 10 8 30 42 75 60 99 100 100 100 100 100 100 100 100 100 99 100 99 100 100 100
26 23 22 20 13 9 7 8 8 10 12 11 10 9 9 9 10 14 14 16 24 20 31 24 37 40 67 89 100 100 96 98 100 100 98 100 99 100 100 100 100 100 99
31 27 24 17 15 9 9 10 10 15 12 10 11 12 12 16 17 16 16 22 36 48 42 49 47 42 37 40 66 91 100 100 96 96 98 99 100 100 100 100 98 96 96
38 37 35 30 20 12 10 10 12 23 17 17 18 20 31 27 22 24 33 38 43 51 53 48 36 32 24 25 30 31 38 73 91 97 99 99 93 95 98 100 100 100 100
54 46 45 35 28 14 13 14 18 29 27 25 32 45 49 34 32 42 38 46 59 56 45 36 32 21 14 13 15 16 17 20 22 22 23 38 61 72 80 94 98 98 98
70 71 79 79 53 49 32 23 29 38 43 53 63 56 43 40 48 64 87 56 78 71 42 65 86 66 39 26 24 22 14 10 10 10 11 12 15 18 18 19 35 68 95
66 76 90 91 80 74 85 42 63 62 60 72 62 41 42 47 55 52 58 48 80 87 73 46 28 68 65 27 12 8 10 14 12 12 9 8 8 10 10 10 10 10 14
98 95 93 85 89 88 94 96 75 76 90 65 53 52 60 64 61 49 45 48 63 87 90 74 56 56 54 44 25 13 10 8 11 20 23 17 12 12 13 10 8 8 9
96 100 100 98 98 96 96 85 98 99 69 59 61 73 74 69 55 50 48 62 86 100 99 97 88 75 63 46 34 28 20 16 19 36 34 28 23 18 13 11 10 9 8
100 100 100 100 100 88 96 100 97 64 56 65 74 72 75 66 66 83 86 100 100 100 100 96 90 86 74 60 58 62 69 54 54 50 42 32 23 18 14 13 12 10 10
100 100 99 100 100 100 100 96 67 64 75 77 80 76 79 83 80 85 95 96 97 97 98 100 98 91 85 82 79 78 78 78 74 66 53 43 26 18 10 8 9 9 11
100 100 100 100 100 100 90 64 54 66 87 88 81 90 95 89 93 91 82 58 60 72 82 92 90 86 78 73 63 59 60 62 68 60 45 33 25 18 12 9 9 10 42
100 100 99 100 94 66 52 55 58 80 85 82 83 98 100 95 70 72 66 76 86 71 39 20 17 18 20 21 22 23 21 19 19 30 25 19 15 10 9 13 26 74 96
100 100 93 77 56 50 53 62 70 79 77 68 67 68 83 90 74 56 50 34 20 23 24 26 34 40 42 45 50 62 70 61 34 19 16 17 12 9 20 72 98 100 100
Wind_Speed
22 28 31 31 34 26 29 30 42 26 20 28 20 22 24 25 27 26 25 27 27 25 24 22 20 23 22 22 19 24 18 31 31 30 31 31 27 20 19 21 22 23 29
26 29 28 27 23 25 26 27 27 35 38 23 29 25 26 25 22 26 26 25 28 26 27 27 24 25 24 20 19 19 22 26 28 32 31 31 28 28 28 30 29 29 29
24 25 27 30 30 25 29 29 26 25 33 25 28 33 30 25 27 25 25 22 24 27 30 31 27 26 25 26 24 25 28 25 33 28 34 33 34 32 32 33 34 33 33
26 27 30 32 30 30 33 30 28 26 29 25 19 18 20 28 30 28 28 29 29 31 31 35 33 31 31 33 31 30 30 33 33 34 35 36 37 36 35 34 34 35 36
26 28 32 35 37 39 47 39 34 30 27 24 18 22 15 16 20 23 34 37 37 34 32 34 38 36 35 36 36 32 32 34 34 34 35 37 37 37 38 36 35 35 36
29 32 34 38 44 45 46 44 41 31 29 30 30 26 23 18 21 21 23 31 33 41 37 36 38 39 37 36 38 36 34 34 37 38 37 36 37 37 36 37 37 38 38
38 41 45 43 41 43 42 44 47 44 36 33 29 30 27 28 31 31 29 33 34 42 42 41 36 36 37 36 37 40 39 40 37 40 41 39 38 37 36 36 37 38 38
41 47 50 49 47 46 45 45 44 43 38 30 27 26 28 34 41 40 39 41 37 42 43 44 43 38 37 39 40 43 45 44 41 39 42 41 41 39 38 37 36 36 38
43 49 51 51 50 50 48 49 45 44 37 32 31 32 31 31 32 40 45 44 41 42 45 46 44 42 44 44 44 44 45 46 47 47 43 44 43 43 42 38 36 35 37
46 45 49 49 49 47 49 44 43 39 36 33 30 28 28 32 34 37 42 47 48 47 48 49 48 47 45 47 49 50 50 51 51 50 45 45 45 47 45 42 44 44 42
45 49 48 44 39 44 50 48 46 40 33 31 32 34 36 36 36 37 38 43 50 53 53 56 55 52 49 48 48 52 55 56 53 52 51 42 43 42 46 48 47 49 48
48 46 43 43 44 46 45 46 47 49 51 52 44 41 40 43 44 46 48 45 46 51 58 56 55 57 55 53 49 46 45 45 49 52 48 40 42 39 39 39 43 47 50
45 47 47 46 44 44 40 40 43 42 43 43 42 46 50 53 55 58 56 58 54 48 51 60 58 56 57 55 55 55 51 46 41 40 42 43 43 39 35 35 34 33 35
48 50 48 47 45 44 41 42 42 43 45 47 49 52 57 61 65 67 63 57 52 48 46 52 63 60 56 57 53 54 55 51 48 46 44 38 44 42 38 39 38 37 38
50 52 51 47 46 46 47 48 47 45 50 54 57 58 63 67 66 63 61 58 51 49 52 57 61 61 54 55 57 59 55 56 56 54 51 48 46 39 38 43 46 49 48
53 52 54 53 51 50 51 51 50 52 52 56 59 64 67 65 63 59 57 52 50 49 51 52 46 46 38 38 41 48 52 57 57 54 51 53 51 50 50 50 45 41 47
55 50 52 54 55 56 53 54 54 53 54 57 66 69 63 57 56 55 51 50 48 48 46 43 44 40 37 34 35 39 42 44 45 46 47 49 51 52 55 57 55 55 54
55 54 53 56 58 58 59 54 53 53 59 67 72 63 57 56 55 53 53 49 46 45 44 45 46 45 42 40 38 37 37 39 41 41 43 46 48 50 50 50 50 53 57
56 57 57 59 61 62 57 54 53 59 65 73 66 60 58 57 54 55 53 50 48 45 44 43 44 45 45 46 45 41 38 36 37 39 41 41 41 41 43 45 47 51 54
59 60 58 58 62 57 53 56 60 67 66 63 63 58 60 58 56 54 50 46 47 46 45 45 45 45 44 46 46 46 45 43 42 40 41 43 44 46 47 46 47 49 51
61 63 58 61 61 58 58 61 64 61 60 60 60 58 58 56 53 48 45 44 43 43 45 45 45 46 45 45 45 45 46 46 44 44 44 44 46 48 48 50 51 49 50
65 65 62 60 59 55 63 61 59 59 61 58 58 55 53 51 43 41 40 39 39 41 45 46 48 49 48 48 48 47 47 47 47 47 46 46 47 48 48 49 50 50 51
69 61 59 60 61 58 60 61 58 58 57 55 53 50 44 39 40 40 40 40 42 44 45 46 46 47 47 49 50 51 51 51 50 50 49 47 46 46 48 49 51 51 50
53 58 61 61 61 64 62 58 58 56 52 51 49 42 41 40 41 41 42 43 45 48 48 48 49 51 51 52 53 53 53 53 52 51 49 48 47 49 50 50 51 51 48
69 63 62 65 67 63 60 58 54 50 49 46 43 43 44 42 42 41 43 46 47 49 50 51 52 54 55 54 54 55 54 56 54 53 52 49 50 50 50 52 52 46 44
69 69 69 64 61 58 55 51 49 46 44 41 39 40 42 43 44 45 43 44 46 48 50 52 55 57 58 58 57 56 57 57 57 55 53 50 48 48 51 50 44 41 44
Wind_Direction
340 344 349 347 357 6 355 355 358 350 245 267 248 257 261 268 271 273 277 289 296 293 294 291 287 283 283 289 279 263 262 262 247 248 255 259 257 270 239 263 265 258 248
334 337 345 349 353 348 348 356 353 348 357 319 272 294 293 270 280 276 282 284 288 289 290 288 278 275 277 272 271 259 245 258 256 248 248 249 255 258 254 256 263 260 255
329 329 336 339 338 336 342 344 339 337 340 339 334 349 324 300 277 276 275 285 298 289 283 282 277 274 272 273 273 263 251 260 249 252 252 258 257 257 257 254 253 256 254
321 325 332 334 335 329 335 333 324 312 325 327 325 329 340 329 303 270 280 277 281 297 291 283 280 279 278 274 272 269 264 261 259 258 259 258 258 261 261 259 255 251 252
322 327 331 332 329 331 325 325 325 313 305 320 310 316 316 325 318 283 288 286 280 285 292 293 280 276 274 273 267 264 265 266 265 261 257 256 256 255 258 259 257 252 249
319 319 323 324 323 320 318 315 315 316 307 305 303 307 288 271 280 277 277 277 281 276 281 286 287 275 271 269 270 266 264 263 263 264 261 258 258 258 257 257 257 256 253
317 319 321 319 315 311 309 310 312 318 322 319 308 303 299 285 291 283 279 279 271 277 278 282 274 271 271 272 267 267 265 264 268 261 259 259 258 259 258 256 256 257 259
307 312 315 318 316 312 311 312 313 313 317 323 324 323 312 298 294 292 285 291 284 276 272 276 278 271 265 263 263 264 265 265 265 271 261 257 256 256 255 254 253 253 253
301 305 311 313 313 313 313 314 312 308 309 310 316 319 320 319 306 301 297 293 280 275 274 272 272 269 268 265 263 263 264 264 267 272 270 260 254 256 255 254 252 251 253
307 307 310 313 313 310 308 306 304 306 306 309 311 313 316 322 321 315 307 295 285 275 274 275 270 265 263 269 270 267 265 264 265 268 267 267 264 254 251 254 253 252 251
310 311 311 307 306 305 303 303 303 308 314 317 314 310 310 313 311 309 299 291 287 280 272 274 269 266 265 263 263 269 272 268 265 264 268 264 259 262 261 253 253 258 258
313 309 303 298 298 297 294 292 293 297 300 302 306 308 308 306 305 302 300 287 281 277 275 274 271 265 264 266 262 259 262 266 270 271 269 260 258 257 255 261 265 265 261
306 297 291 294 292 290 283 284 288 292 296 297 300 303 304 301 301 299 297 293 286 281 278 273 270 270 269 268 268 265 255 251 258 260 263 262 253 247 251 251 252 257 263
299 293 293 293 288 281 279 279 284 290 291 294 292 293 294 294 293 299 299 297 290 282 267 264 269 268 266 269 271 269 266 263 260 256 249 262 263 261 257 254 253 253 255
291 289 289 283 282 277 276 277 280 288 288 287 289 291 291 295 298 296 293 291 285 271 267 264 268 272 275 272 270 272 268 267 266 267 266 259 263 262 268 270 262 260 261
294 293 290 286 282 279 279 280 280 285 285 289 290 292 301 302 300 294 290 287 281 274 266 271 281 279 279 275 272 272 274 276 271 271 270 267 267 269 267 265 264 264 262
298 296 289 285 283 281 280 282 283 289 290 289 294 300 307 299 292 291 288 284 281 277 277 278 280 279 278 274 270 269 271 270 269 267 267 269 270 269 268 266 264 264 263
298 296 293 290 286 286 285 284 285 291 293 295 301 305 299 292 290 287 288 282 281 278 276 280 271 274 278 277 274 273 271 269 267 267 267 265 265 266 264 263 264 266 266
297 298 298 295 291 290 292 292 294 296 294 298 304 302 295 292 292 287 284 280 278 277 276 277 277 278 275 275 274 272 270 269 266 265 263 264 266 266 267 267 265 263 261
300 302 299 294 292 291 295 295 295 295 302 305 305 298 296 295 293 288 282 279 276 274 274 275 276 276 276 275 275 275 272 270 268 270 270 267 266 268 269 269 268 268 267
299 297 295 295 294 292 294 294 295 301 303 303 300 296 296 294 290 284 281 279 277 275 275 275 274 274 275 275 274 275 274 271 269 271 272 272 271 268 269 271 272 274 272
296 294 297 297 294 291 289 295 302 306 301 298 298 297 293 290 286 284 285 282 281 278 276 276 275 274 273 272 273 273 272 270 269 270 271 272 270 269 269 270 270 272 273
290 293 295 294 292 295 296 304 303 299 298 297 296 294 289 288 287 285 283 282 283 281 279 277 275 273 272 272 272 271 270 268 268 267 269 270 269 267 266 267 268 268 272
292 291 290 295 295 298 306 303 299 297 295 294 293 290 287 287 290 287 286 284 283 280 278 278 277 275 273 271 271 270 268 267 264 263 265 266 267 266 266 266 269 272 270
294 295 292 295 304 304 300 295 295 294 293 292 290 286 285 287 286 284 285 285 285 282 281 280 278 276 274 272 271 269 268 266 263 263 262 264 266 268 268 269 267 260 254
290 296 302 302 298 295 293 293 293 293 291 291 290 288 287 285 286 286 288 288 287 287 285 282 280 277 275 273 272 270 268 266 262 259 261 263 267 271 271 266 257 248 246